Time,TemperatureF,DewpointF,PressureIn,WindDirection,WindDirectionDegrees,WindSpeedMPH,WindSpeedGustMPH,Humidity,HourlyPrecipIn,Conditions,Clouds,dailyrainin,SoftwareType,DateUTC
2013-08-15 00:00:00,58.0,-99.9,29.97,South,190,9.0,10.0,-999,-99.99,,,-99.99,,2013-08-15 07:00:00,
2013-08-15 00:21:00,58.0,-99.9,29.97,South,190,9.0,10.0,-999,-99.99,,,-99.99,,2013-08-15 07:21:00,
2013-08-15 00:32:00,58.0,-99.9,29.97,South,190,9.0,10.0,-999,-99.99,,,-99.99,,2013-08-15 07:32:00,
2013-08-15 00:42:00,58.0,-99.9,29.97,South,190,9.0,10.0,-999,-99.99,,,-99.99,,2013-08-15 07:42:00,
2013-08-15 00:52:00,58.0,-99.9,29.97,South,190,9.0,10.0,-999,-99.99,,,-99.99,,2013-08-15 07:52:00,
2013-08-15 01:00:00,58.0,-99.9,29.97,South,190,10.0,13.0,-999,-99.99,,,-99.99,,2013-08-15 08:00:00,
2013-08-15 01:21:00,58.0,-99.9,29.97,South,190,10.0,13.0,-999,-99.99,,,-99.99,,2013-08-15 08:21:00,
2013-08-15 01:33:00,58.0,-99.9,29.97,South,190,10.0,13.0,-999,-99.99,,,-99.99,,2013-08-15 08:33:00,
2013-08-15 01:42:00,58.0,-99.9,29.97,South,190,10.0,13.0,-999,-99.99,,,-99.99,,2013-08-15 08:42:00,
2013-08-15 01:52:00,58.0,-99.9,29.97,South,190,10.0,13.0,-999,-99.99,,,-99.99,,2013-08-15 08:52:00,
2013-08-15 02:00:00,57.0,-99.9,29.96,South,190,9.0,10.0,-999,-99.99,,,-99.99,,2013-08-15 09:00:00,
2013-08-15 02:21:00,57.0,-99.9,29.96,South,190,9.0,10.0,-999,-99.99,,,-99.99,,2013-08-15 09:21:00,
2013-08-15 02:33:00,57.0,-99.9,29.96,South,190,9.0,10.0,-999,-99.99,,,-99.99,,2013-08-15 09:33:00,
2013-08-15 02:42:00,57.0,-99.9,29.96,South,190,9.0,10.0,-999,-99.99,,,-99.99,,2013-08-15 09:42:00,
2013-08-15 02:53:00,57.0,-99.9,29.96,South,190,9.0,10.0,-999,-99.99,,,-99.99,,2013-08-15 09:53:00,
2013-08-15 03:00:00,57.0,-99.9,29.96,South,180,8.0,9.0,-999,-99.99,,,-99.99,,2013-08-15 10:00:00,
2013-08-15 03:22:00,57.0,-99.9,29.96,South,180,8.0,9.0,-999,-99.99,,,-99.99,,2013-08-15 10:22:00,
2013-08-15 03:32:00,57.0,-99.9,29.96,South,180,8.0,9.0,-999,-99.99,,,-99.99,,2013-08-15 10:32:00,
2013-08-15 03:42:00,57.0,-99.9,29.96,South,180,8.0,9.0,-999,-99.99,,,-99.99,,2013-08-15 10:42:00,
2013-08-15 03:52:00,57.0,-99.9,29.96,South,180,8.0,9.0,-999,-99.99,,,-99.99,,2013-08-15 10:52:00,
2013-08-15 04:00:00,58.0,-99.9,29.96,South,190,8.0,9.0,-999,-99.99,,,-99.99,,2013-08-15 11:00:00,
2013-08-15 04:22:00,58.0,-99.9,29.96,South,190,8.0,9.0,-999,-99.99,,,-99.99,,2013-08-15 11:22:00,
2013-08-15 04:32:00,58.0,-99.9,29.96,South,190,8.0,9.0,-999,-99.99,,,-99.99,,2013-08-15 11:32:00,
2013-08-15 04:42:00,58.0,-99.9,29.96,South,190,8.0,9.0,-999,-99.99,,,-99.99,,2013-08-15 11:42:00,
2013-08-15 04:52:00,58.0,-99.9,29.96,South,190,8.0,9.0,-999,-99.99,,,-99.99,,2013-08-15 11:52:00,
2013-08-15 06:00:00,58.0,-99.9,29.95,SW,220,6.0,7.0,-999,-99.99,,,-99.99,,2013-08-15 13:00:00,
2013-08-15 06:21:00,58.0,-99.9,29.95,SW,220,6.0,7.0,-999,-99.99,,,-99.99,,2013-08-15 13:21:00,
2013-08-15 06:32:00,58.0,-99.9,29.95,SW,220,6.0,7.0,-999,-99.99,,,-99.99,,2013-08-15 13:32:00,
2013-08-15 06:42:00,58.0,-99.9,29.95,SW,220,6.0,7.0,-999,-99.99,,,-99.99,,2013-08-15 13:42:00,
2013-08-15 06:52:00,58.0,-99.9,29.95,SW,220,6.0,7.0,-999,-99.99,,,-99.99,,2013-08-15 13:52:00,
2013-08-15 07:00:00,57.0,-99.9,29.96,SW,230,5.0,6.0,-999,-99.99,,,-99.99,,2013-08-15 14:00:00,
2013-08-15 07:22:00,57.0,-99.9,29.96,SW,230,5.0,6.0,-999,-99.99,,,-99.99,,2013-08-15 14:22:00,
2013-08-15 07:32:00,57.0,-99.9,29.96,SW,230,5.0,6.0,-999,-99.99,,,-99.99,,2013-08-15 14:32:00,
2013-08-15 07:48:00,57.0,-99.9,29.96,SW,230,5.0,6.0,-999,-99.99,,,-99.99,,2013-08-15 14:48:00,
2013-08-15 07:56:00,57.0,-99.9,29.96,SW,230,5.0,6.0,-999,-99.99,,,-99.99,,2013-08-15 14:56:00,
2013-08-15 08:00:00,57.0,-99.9,29.96,South,180,3.0,3.0,-999,-99.99,,,-99.99,,2013-08-15 15:00:00,
2013-08-15 08:23:00,57.0,-99.9,29.96,South,180,3.0,3.0,-999,-99.99,,,-99.99,,2013-08-15 15:23:00,
2013-08-15 08:34:00,57.0,-99.9,29.96,South,180,3.0,3.0,-999,-99.99,,,-99.99,,2013-08-15 15:34:00,
2013-08-15 08:43:00,57.0,-99.9,29.96,South,180,3.0,3.0,-999,-99.99,,,-99.99,,2013-08-15 15:43:00,
2013-08-15 08:54:00,57.0,-99.9,29.96,South,180,3.0,3.0,-999,-99.99,,,-99.99,,2013-08-15 15:54:00,
2013-08-15 09:00:00,58.0,-99.9,29.98,SW,220,1.0,1.0,-999,-99.99,,,-99.99,,2013-08-15 16:00:00,
2013-08-15 09:26:00,58.0,-99.9,29.98,SW,220,1.0,1.0,-999,-99.99,,,-99.99,,2013-08-15 16:26:00,
2013-08-15 09:35:00,58.0,-99.9,29.98,SW,220,1.0,1.0,-999,-99.99,,,-99.99,,2013-08-15 16:35:00,
2013-08-15 09:44:00,58.0,-99.9,29.98,SW,220,1.0,1.0,-999,-99.99,,,-99.99,,2013-08-15 16:44:00,
2013-08-15 09:55:00,58.0,-99.9,29.98,SW,220,1.0,1.0,-999,-99.99,,,-99.99,,2013-08-15 16:55:00,
2013-08-15 10:00:00,-999.0,-99.9,29.96,North,0,0.0,0.0,-999,-99.99,,,-99.99,,2013-08-15 17:00:00,
2013-08-15 10:31:00,58.0,-99.9,29.98,North,0,0.0,0.0,-999,-99.99,,,-99.99,,2013-08-15 17:31:00,
2013-08-15 10:39:00,58.0,-99.9,29.98,North,0,0.0,0.0,-999,-99.99,,,-99.99,,2013-08-15 17:39:00,
2013-08-15 10:55:00,58.0,-99.9,29.98,North,0,0.0,0.0,-999,-99.99,,,-99.99,,2013-08-15 17:55:00,
2013-08-15 11:00:00,-999.0,-99.9,29.97,North,0,0.0,1.0,-999,-99.99,,,-99.99,,2013-08-15 18:00:00,
2013-08-15 11:36:00,-999.0,-99.9,29.97,North,0,0.0,1.0,-999,-99.99,,,-99.99,,2013-08-15 18:36:00,
2013-08-15 11:49:00,59.0,-99.9,29.98,North,0,0.0,1.0,-999,-99.99,,,-99.99,,2013-08-15 18:49:00,
2013-08-15 12:00:00,-999.0,-99.9,29.98,North,0,0.0,-999.0,-999,-99.99,,,-99.99,,2013-08-15 19:00:00,
2013-08-15 12:34:00,-999.0,-99.9,29.98,North,0,0.0,1.0,-999,-99.99,,,-99.99,,2013-08-15 19:34:00,
2013-08-15 12:40:00,61.0,-99.9,29.99,North,0,0.0,1.0,-999,-99.99,,,-99.99,,2013-08-15 19:40:00,
2013-08-15 12:49:00,61.0,-99.9,29.99,North,0,0.0,1.0,-999,-99.99,,,-99.99,,2013-08-15 19:49:00,
2013-08-15 13:00:00,62.0,-99.9,29.98,North,0,0.0,1.0,-999,-99.99,,,-99.99,,2013-08-15 20:00:00,
2013-08-15 13:34:00,62.0,-99.9,29.98,North,0,0.0,1.0,-999,-99.99,,,-99.99,,2013-08-15 20:34:00,
2013-08-15 13:46:00,62.0,-99.9,29.98,North,0,0.0,1.0,-999,-99.99,,,-99.99,,2013-08-15 20:46:00,
2013-08-15 14:00:00,59.0,-99.9,29.99,SW,230,6.0,7.0,-999,-99.99,,,-99.99,,2013-08-15 21:00:00,
2013-08-15 14:41:00,59.0,-99.9,29.99,SW,230,6.0,7.0,-999,-99.99,,,-99.99,,2013-08-15 21:41:00,
2013-08-15 14:49:00,59.0,-99.9,29.99,SW,230,6.0,7.0,-999,-99.99,,,-99.99,,2013-08-15 21:49:00,
2013-08-15 14:57:00,59.0,-99.9,29.99,SW,230,6.0,7.0,-999,-99.99,,,-99.99,,2013-08-15 21:57:00,
2013-08-15 15:00:00,56.0,-99.9,30.00,North,0,0.0,1.0,-999,-99.99,,,-99.99,,2013-08-15 22:00:00,
2013-08-15 15:49:00,56.0,-99.9,30.00,North,0,0.0,1.0,-999,-99.99,,,-99.99,,2013-08-15 22:49:00,
2013-08-15 15:58:00,56.0,-99.9,30.00,North,0,0.0,1.0,-999,-99.99,,,-99.99,,2013-08-15 22:58:00,
2013-08-15 16:00:00,58.0,-99.9,29.99,North,0,0.0,1.0,-999,-99.99,,,-99.99,,2013-08-15 23:00:00,
2013-08-15 16:35:00,-999.0,-99.9,29.98,North,0,0.0,1.0,-999,-99.99,,,-99.99,,2013-08-15 23:35:00,
2013-08-15 16:40:00,58.0,-99.9,29.99,North,0,0.0,1.0,-999,-99.99,,,-99.99,,2013-08-15 23:40:00,
2013-08-15 16:48:00,58.0,-99.9,29.99,North,0,0.0,1.0,-999,-99.99,,,-99.99,,2013-08-15 23:48:00,
2013-08-15 16:55:00,58.0,-99.9,29.99,North,0,0.0,1.0,-999,-99.99,,,-99.99,,2013-08-15 23:55:00,
2013-08-15 17:00:00,58.0,-99.9,29.99,North,0,0.0,1.0,-999,-99.99,,,-99.99,,2013-08-16 00:00:00,
2013-08-15 17:24:00,58.0,-99.9,29.99,North,0,0.0,1.0,-999,-99.99,,,-99.99,,2013-08-16 00:24:00,
2013-08-15 17:39:00,58.0,-99.9,29.99,North,0,0.0,1.0,-999,-99.99,,,-99.99,,2013-08-16 00:39:00,
2013-08-15 17:46:00,58.0,-99.9,29.99,North,0,0.0,1.0,-999,-99.99,,,-99.99,,2013-08-16 00:46:00,
2013-08-15 17:52:00,58.0,-99.9,29.99,North,0,0.0,1.0,-999,-99.99,,,-99.99,,2013-08-16 00:52:00,
2013-08-15 18:00:00,57.0,-99.9,29.99,WNW,290,6.0,6.0,-999,-99.99,,,-99.99,,2013-08-16 01:00:00,
2013-08-15 18:26:00,57.0,-99.9,29.99,WNW,290,6.0,6.0,-999,-99.99,,,-99.99,,2013-08-16 01:26:00,
2013-08-15 18:43:00,-999.0,-99.9,29.97,WNW,290,6.0,6.0,-999,-99.99,,,-99.99,,2013-08-16 01:43:00,
2013-08-15 18:54:00,57.0,-99.9,29.99,WNW,290,6.0,6.0,-999,-99.99,,,-99.99,,2013-08-16 01:54:00,
2013-08-15 19:00:00,56.0,-99.9,29.98,NNW,340,6.0,7.0,-999,-99.99,,,-99.99,,2013-08-16 02:00:00,
2013-08-15 19:22:00,56.0,-99.9,29.98,NNW,340,6.0,7.0,-999,-99.99,,,-99.99,,2013-08-16 02:22:00,
2013-08-15 19:32:00,56.0,-99.9,29.98,NNW,340,6.0,7.0,-999,-99.99,,,-99.99,,2013-08-16 02:32:00,
2013-08-15 19:44:00,56.0,-99.9,29.98,NNW,340,6.0,7.0,-999,-99.99,,,-99.99,,2013-08-16 02:44:00,
2013-08-15 19:52:00,56.0,-99.9,29.98,NNW,340,6.0,7.0,-999,-99.99,,,-99.99,,2013-08-16 02:52:00,
2013-08-15 20:00:00,57.0,-99.9,29.99,NE,40,2.0,3.0,-999,-99.99,,,-99.99,,2013-08-16 03:00:00,
2013-08-15 20:22:00,57.0,-99.9,29.99,NE,40,2.0,3.0,-999,-99.99,,,-99.99,,2013-08-16 03:22:00,
2013-08-15 20:34:00,57.0,-99.9,29.99,NE,40,2.0,3.0,-999,-99.99,,,-99.99,,2013-08-16 03:34:00,
2013-08-15 20:43:00,57.0,-99.9,29.99,NE,40,2.0,3.0,-999,-99.99,,,-99.99,,2013-08-16 03:43:00,
2013-08-15 20:53:00,57.0,-99.9,29.99,NE,40,2.0,3.0,-999,-99.99,,,-99.99,,2013-08-16 03:53:00,
2013-08-15 21:00:00,58.0,-99.9,30.00,South,180,2.0,2.0,-999,-99.99,,,-99.99,,2013-08-16 04:00:00,
2013-08-15 21:23:00,58.0,-99.9,30.00,South,180,2.0,2.0,-999,-99.99,,,-99.99,,2013-08-16 04:23:00,
2013-08-15 21:33:00,58.0,-99.9,30.00,South,180,2.0,2.0,-999,-99.99,,,-99.99,,2013-08-16 04:33:00,
2013-08-15 21:43:00,58.0,-99.9,30.00,South,180,2.0,2.0,-999,-99.99,,,-99.99,,2013-08-16 04:43:00,
2013-08-15 21:54:00,58.0,-99.9,30.00,South,180,2.0,2.0,-999,-99.99,,,-99.99,,2013-08-16 04:54:00,
2013-08-15 22:22:00,56.0,-99.9,30.01,NW,310,2.0,2.0,-999,-99.99,,,-99.99,,2013-08-16 05:22:00,
2013-08-15 22:32:00,56.0,-99.9,30.01,NW,310,2.0,2.0,-999,-99.99,,,-99.99,,2013-08-16 05:32:00,
2013-08-15 23:00:00,57.0,-99.9,30.00,SSE,150,2.0,3.0,-999,-99.99,,,-99.99,,2013-08-16 06:00:00,